Regional Weather Roundup
Issued by NWS

Home | Current Version | Previous Version | Graphics & Text | Print | Product List | Glossary Off
Versions: 1 2 3 4 5 6 7 8 9 10 11 12 13 14 15 16 17 18 19 20 21 22 23 24 25 26 27 28 29 30 31 32 33 34 35 36 37 38 39 40 41 42 43 44 45 46 47 48 49 50

000
ASUS43 KTOP 241208
RWRKS

WEATHER ROUNDUP FOR KANSAS
NATIONAL WEATHER SERVICE GOODLAND KS
700 AM CDT FRI MAR 24 2017

NOTE:  "FAIR" INDICATES FEW OR NO CLOUDS BELOW 12,000 FEET WITH NO
SIGNIFICANT WEATHER AND/OR OBSTRUCTIONS TO VISIBILITY.

KSZ001>006-013>018-027>032-041>047-241300-
NORTHWEST KANSAS

CITY           SKY/WX    TMP DP  RH WIND       PRES   REMARKS
GOODLAND       LGT RAIN  49  49 100 NE33G47   29.62R VSB 3/4
6HR MIN TEMP:  49; 6HR MAX TEMP:  56; 6HR PCP:  0.03;

HAYS             N/A     57  45  64 E8        29.63R
HILL CITY      CLOUDY    55  54  96 NE18G26   29.65S
6HR MIN TEMP:  54; 6HR MAX TEMP:  59; 6HR PCP:  0.04;

RUSSELL        CLOUDY    62  43  49 S15       29.63R
6HR MIN TEMP:  61; 6HR MAX TEMP:  69;

$$

KSZ061>065-074>080-084>089-241300-
SOUTHWEST KANSAS

CITY           SKY/WX    TMP DP  RH WIND       PRES   REMARKS
DODGE CITY     CLEAR     46  39  76 S9        29.62R
6HR MIN TEMP:  46; 6HR MAX TEMP:  61; 6HR PCP:  0.03;

ELKHART          N/A     39  28  64 SE16        N/A  WCI  30
GARDEN CITY    CLEAR     43  36  76 SE9       29.59R
6HR MIN TEMP:  43; 6HR MAX TEMP:  60;

GREAT BEND     CLEAR     60  43  53 S16       29.63R
LIBERAL        CLEAR     46  28  49 S15       29.53S
PRATT            N/A    N/A N/A N/A MISG        N/A
$$

KSZ066>073-081>083-090>101-241300-
SOUTHEAST KANSAS

CITY           SKY/WX    TMP DP  RH WIND       PRES   REMARKS
CHANUTE        CLOUDY    64  44  48 S16       29.80S
6HR MIN TEMP:  62; 6HR MAX TEMP:  70; 6HR PCP: TRACE;

COFFEYVILLE    CLOUDY    68  43  40 S25G36    29.82R
6HR MIN TEMP:  68; 6HR MAX TEMP:  72;

HUTCHINSON     MOCLDY    66  45  46 S26G38    29.66R
6HR MIN TEMP:  66; 6HR MAX TEMP:  70;

MEDICINE LODGE   N/A     61  37  41 S14       29.65R
NEWTON         CLOUDY    65  44  46 S25G33    29.70R
PARSONS        CLOUDY    68  40  35 S16G29    29.82R
6HR MIN TEMP:  67; 6HR MAX TEMP:  71; 6HR PCP: TRACE;

WICHITA INTL   MOCLDY    65  45  48 S20G29    29.70R
6HR MIN TEMP:  65; 6HR MAX TEMP:  70;

WICHITA JABRA  CLEAR     65  44  46 S21G28    29.71R
6HR MIN TEMP:  65; 6HR MAX TEMP:  71;

WICHITA MCCONL CLEAR     66  44  44 S23G32    29.71R
WINFIELD       CLOUDY    66  47  50 S18       29.74R
6HR MIN TEMP:  66; 6HR MAX TEMP:  72;

$$

KSZ007>012-019>026-033>040-048>060-102>105-241300-
NORTHEAST KANSAS

CITY           SKY/WX    TMP DP  RH WIND       PRES   REMARKS
CONCORDIA      CLOUDY    66  44  45 S9        29.69R
6HR MIN TEMP:  65; 6HR MAX TEMP:  72; 6HR PCP: TRACE;

EMPORIA        CLOUDY    67  45  45 S24G32    29.72S
6HR MIN TEMP:  63; 6HR MAX TEMP:  68;

LAWRENCE       CLOUDY    68  45  43 S17G26    29.75S
6HR MIN TEMP:  67; 6HR MAX TEMP:  72;

MANHATTAN      CLOUDY    68  42  38 S10G21    29.70R
6HR MIN TEMP:  67; 6HR MAX TEMP:  72;

MARYSVILLE     CLOUDY    55  52  88 SE3       29.73S
OLATHE IND     PTCLDY    66  45  46 S17G23    29.79R
6HR MIN TEMP:  66; 6HR MAX TEMP:  68;

OLATHE EXE     PTCLDY    66  45  46 S17G33    29.79R
6HR MIN TEMP:  65; 6HR MAX TEMP:  67;

SALINA         CLOUDY    67  42  40 S14       29.67R
6HR MIN TEMP:  67; 6HR MAX TEMP:  73; 6HR PCP: TRACE;

TOPEKA BILLARD CLOUDY    68  46  45 S13G24    29.73R
6HR MIN TEMP:  67; 6HR MAX TEMP:  70;

TOPEKA FORBES  CLOUDY    68  46  45 S20G26    29.72R
6HR MIN TEMP:  67; 6HR MAX TEMP:  71;

$$



USA.gov is the U.S. government's official web portal to all federal, state and local government web resources and services.